Location: Newark
(48.5667°N, 3.3000°E)
Time: 01:28:42
(UTC+00:00)

N. Korean satellite - Pass Details

Date: 27 October 2019
Orbit: 456 x 506 km, 97.2° (Epoch: 18 November)

Event Time Altitude Azimuth Distance (km) Brightness Sun altitude
Rises 04:56:00 0° 25° (NNE) 2,584 10.6 -15.2°
Reaches altitude 10° 04:58:26 10° 41° (NE) 1,704 9.9 -14.8°
Maximum altitude 05:01:20 22° 93° (E) 1,144 9.5 -14.3°
Drops below altitude 10° 05:04:14 10° 146° (SE) 1,708 9.9 -13.8°
Sets 05:06:41 0° 162° (SSE) 2,592 10.6 -13.4°
